GFSSW_sfc_temp_078.txt.gz
Temp
61 61 61 61 61 61 61 61 60 60 60 61 61 61 61 60 60 77 76 80 80 68 66 87 85 85 87 82 86 86 68 64 67 70 71 76 75 82 83 77 72 69 62 71 76
61 61 61 61 60 60 60 60 60 60 60 60 60 60 60 59 66 74 78 69 69 69 82 83 81 85 80 81 82 76 68 68 77 78 75 78 78 80 77 68 63 57 70 73 74
60 60 60 60 60 60 59 59 59 60 60 60 60 60 59 61 70 79 68 69 69 71 84 87 87 84 77 81 80 78 69 77 78 80 80 77 74 77 77 63 62 60 75 71 70
60 60 60 60 60 59 59 58 59 60 60 60 60 60 59 67 64 83 69 69 69 82 84 83 82 76 74 73 81 72 78 79 80 81 79 76 72 76 78 72 76 78 76 73 69
59 60 60 60 59 59 58 58 58 58 59 59 60 60 65 70 74 81 70 70 81 82 80 81 78 78 72 77 79 75 77 80 82 80 79 80 76 76 62 71 76 77 71 66 62
59 58 59 59 59 58 58 57 57 58 58 59 60 58 65 59 88 92 88 84 83 82 82 83 81 84 77 76 74 78 78 78 80 79 78 76 72 72 57 66 73 70 67 63 60
58 59 58 58 58 58 58 57 57 57 58 59 60 65 63 64 87 92 89 87 87 87 81 87 87 81 80 74 81 79 71 75 70 70 68 74 67 60 67 72 72 69 67 65 61
58 58 58 58 58 57 57 56 56 57 58 59 59 65 60 83 89 87 88 85 90 91 88 90 89 81 77 80 76 71 72 60 63 67 73 74 56 62 66 69 71 70 67 63 60
57 57 57 57 57 57 56 56 56 57 58 59 62 64 63 81 78 86 88 82 86 87 88 89 84 76 76 69 65 69 58 60 66 71 70 73 60 61 67 68 71 69 67 61 57
57 57 57 56 56 56 55 56 60 61 63 71 71 64 71 72 85 85 88 86 81 81 79 77 74 69 69 66 54 58 57 64 63 70 72 70 69 63 65 76 71 66 63 61 59
56 56 56 56 56 56 57 62 69 60 66 65 68 66 73 83 87 82 87 81 81 77 66 73 65 60 67 71 71 69 66 65 70 74 70 69 70 73 75 75 72 66 66 64 62
56 56 56 55 55 55 57 55 69 68 56 71 72 72 77 80 71 78 86 73 70 65 71 67 61 70 74 74 71 69 65 64 70 75 71 69 68 74 74 74 72 70 66 65 65
56 56 55 55 55 56 58 60 73 74 56 63 71 71 73 77 69 71 81 75 69 65 68 63 68 75 72 70 67 66 63 64 64 71 72 68 64 70 74 76 74 74 72 70 68
55 55 54 55 52 61 61 69 76 73 50 59 67 72 75 76 66 78 82 76 70 64 68 68 74 72 69 66 69 61 72 70 66 63 56 63 51 65 70 70 74 73 73 72 71
55 55 54 54 56 56 62 63 63 64 35 68 71 82 77 69 72 72 81 76 66 66 69 65 68 67 66 67 71 65 72 68 67 63 62 60 55 65 71 66 71 73 74 73 75
55 55 54 56 56 60 62 58 56 45 36 60 68 64 64 67 69 76 72 77 76 67 71 69 78 74 71 74 73 74 69 67 66 62 50 61 59 57 60 68 74 75 76 76 75
54 54 54 60 54 65 58 51 41 38 61 58 62 65 62 61 63 66 65 63 60 52 56 66 68 75 76 68 73 70 62 49 44 46 47 62 57 62 67 74 77 77 77 77 78
53 53 55 59 63 61 51 40 33 49 52 69 67 65 58 63 62 63 63 59 66 63 59 56 53 68 74 68 64 64 62 51 39 34 45 56 53 63 75 79 80 80 80 80 78
53 53 54 56 61 57 42 30 37 49 60 58 63 59 57 62 63 61 60 60 65 64 55 56 57 72 73 73 70 64 57 67 56 56 47 53 56 70 76 76 78 78 80 78 79
50 50 51 59 62 50 37 33 44 54 60 63 53 60 54 58 57 58 59 65 63 68 69 63 55 69 72 74 72 68 71 55 58 42 40 53 57 50 63 69 74 75 76 78 79
45 40 52 59 58 41 31 36 45 55 58 54 54 57 59 58 59 57 58 63 66 65 69 67 61 62 70 65 63 63 61 62 62 57 44 41 52 61 65 69 73 76 77 78 79
43 33 51 57 36 38 33 42 49 52 59 56 57 55 58 61 56 56 56 61 67 68 62 67 62 54 61 71 73 70 64 63 52 51 54 49 51 74 73 74 76 76 79 79 80
38 38 53 53 31 34 43 43 48 49 52 54 54 58 61 57 54 58 59 66 67 61 62 65 57 49 55 64 68 63 67 67 64 61 53 44 51 74 76 76 76 75 77 78 79
36 32 42 42 49 43 41 42 42 51 51 57 56 57 51 51 54 56 57 63 61 62 53 59 61 56 49 55 63 58 63 66 63 50 53 54 59 67 71 72 75 75 74 76 79
35 37 45 32 35 42 45 46 43 44 52 54 52 52 47 45 47 54 55 56 59 60 61 60 53 60 62 64 65 63 62 63 60 62 54 59 60 67 71 73 74 76 76 78 79
33 39 48 45 44 40 42 43 45 49 50 47 48 53 55 45 56 53 57 49 50 58 57 62 54 58 55 62 63 60 65 64 64 64 64 64 63 74 76 77 75 77 77 77 77
42 51 48 43 40 40 40 44 46 52 54 56 55 53 51 50 56 59 63 59 56 53 51 53 55 53 46 59 58 48 59 63 65 67 65 58 66 73 72 74 74 75 76 76 77

GFSSW_sfc_temp_084.txt.gz
Temp
61 61 61 60 59 59 59 59 58 58 59 59 59 60 60 60 58 64 60 67 66 66 65 71 68 67 65 61 63 61 48 44 49 53 59 67 64 64 63 59 62 63 62 64 64
61 61 61 60 59 59 59 58 58 58 59 59 59 59 59 59 57 59 68 68 67 66 71 70 67 66 60 59 61 56 46 51 61 63 63 67 64 63 61 60 61 62 65 64 63
61 60 60 60 60 59 59 58 58 58 58 58 59 59 58 58 56 66 67 67 67 68 70 70 71 67 59 58 59 55 52 63 65 66 67 64 58 60 60 53 59 59 64 62 63
60 60 60 60 60 59 58 57 58 58 58 58 59 59 58 55 54 67 68 68 68 70 71 68 66 60 57 56 60 54 63 65 66 66 65 59 59 61 56 58 63 61 63 62 62
58 58 59 60 59 59 58 58 58 58 58 58 58 59 55 52 57 73 68 68 68 71 69 68 63 61 57 59 62 60 62 67 67 65 64 67 60 62 59 61 63 63 63 60 60
57 57 57 58 59 58 58 58 57 57 58 58 58 58 53 46 71 75 71 69 70 69 68 68 66 67 63 62 58 64 64 64 64 64 64 63 60 59 59 64 62 60 58 59 59
57 57 57 57 57 57 57 57 57 57 57 58 58 57 52 52 67 68 71 71 70 72 68 70 70 65 63 62 67 64 58 61 63 62 60 62 54 56 61 63 61 59 57 57 57
57 57 56 56 56 56 56 56 56 56 58 58 58 56 47 68 65 66 66 67 72 74 74 74 72 67 63 66 63 58 55 48 58 62 64 63 50 60 61 61 57 56 55 55 58
57 56 56 55 55 55 55 55 56 57 58 58 53 52 47 69 64 69 70 68 73 73 72 79 70 63 62 53 48 49 45 49 55 63 60 58 53 59 59 61 57 54 55 57 55
56 56 56 55 55 54 54 54 56 55 57 61 59 48 57 61 70 73 71 72 69 68 67 65 61 55 51 48 41 44 46 52 51 57 57 53 55 55 56 59 55 52 54 56 56
56 56 56 55 55 54 53 50 50 49 52 51 53 53 61 70 73 70 73 69 68 64 55 59 51 49 51 53 56 55 53 51 56 63 57 55 54 56 55 55 51 51 54 56 56
55 55 55 55 54 54 50 46 51 52 41 54 55 58 63 67 58 65 72 62 59 54 58 54 50 59 59 58 56 55 52 52 58 62 58 56 54 56 56 55 55 51 51 54 56
55 55 55 54 54 49 47 50 58 57 42 51 58 58 60 63 56 59 66 63 58 54 55 51 56 63 59 57 55 55 52 53 54 58 58 53 50 53 58 58 57 55 54 53 54
54 54 54 54 47 46 45 56 57 56 37 45 53 58 61 62 55 67 71 64 58 54 56 53 61 59 57 56 58 50 60 60 57 51 43 52 39 49 53 53 55 55 53 52 54
54 54 54 54 43 41 51 54 56 52 24 52 56 67 63 58 60 60 68 63 55 55 55 52 57 56 54 57 61 55 62 59 58 51 45 48 42 48 55 51 52 55 55 54 54
54 54 53 49 43 46 50 50 51 35 24 45 59 55 54 57 58 61 59 62 63 55 56 55 62 59 59 63 63 66 59 56 53 49 38 45 44 44 48 56 56 58 58 57 56
53 53 51 52 40 48 49 44 34 27 49 46 51 55 54 51 53 55 54 51 47 43 45 52 55 61 63 56 60 59 50 38 36 36 34 47 45 48 58 60 62 60 59 59 59
53 52 50 50 46 46 43 34 26 40 40 52 50 50 46 50 52 53 50 45 52 50 45 43 41 55 62 57 54 54 52 37 34 30 36 47 41 49 61 64 65 67 64 62 59
52 43 42 45 47 45 39 25 30 38 47 45 46 43 44 49 47 45 48 49 51 54 44 42 45 58 63 63 61 53 46 55 43 43 36 42 48 58 61 62 64 62 65 61 61
45 44 45 47 47 41 33 29 34 45 47 45 35 43 38 42 42 40 39 52 52 56 58 50 42 57 61 63 62 58 59 44 43 33 31 39 42 46 54 59 60 61 61 63 64
44 38 47 49 46 38 27 29 38 46 47 42 40 39 41 40 44 43 39 45 52 55 57 56 47 48 57 53 52 52 50 50 51 43 34 31 39 52 56 60 60 61 62 63 65
42 33 47 50 33 35 30 37 42 42 46 43 43 41 38 42 39 41 42 46 55 53 48 54 50 43 48 58 60 57 54 53 41 41 41 37 40 58 59 61 61 61 65 61 65
37 37 46 46 29 30 37 37 40 40 40 40 40 44 44 42 36 41 45 54 53 46 51 52 46 36 45 51 55 52 55 56 52 47 43 33 39 60 59 62 63 61 63 64 64
33 30 38 40 40 36 34 33 34 44 41 42 40 43 40 37 44 39 43 51 51 50 49 53 46 47 40 45 51 47 53 58 54 42 43 41 47 54 58 59 62 62 64 63 63
33 32 39 30 33 35 36 38 34 34 42 43 39 38 36 32 37 38 45 45 48 49 49 51 41 46 49 53 54 53 52 55 54 51 45 49 49 54 58 60 62 64 63 63 65
32 34 38 34 38 35 36 34 34 38 38 38 36 40 41 35 38 37 42 43 41 45 43 49 41 43 42 50 54 49 54 55 54 54 53 53 51 61 66 59 61 63 63 63 64
41 41 40 38 36 33 34 34 37 40 41 44 42 40 38 41 46 47 47 48 46 43 39 41 41 40 35 47 49 38 46 51 54 56 54 47 54 58 58 60 61 62 63 63 64

GFSSW_sfc_temp_087.txt.gz
Temp
60 60 60 60 59 59 59 59 58 58 59 59 59 59 59 59 58 59 57 67 63 65 68 67 66 64 62 57 58 55 46 41 47 48 55 63 61 61 61 59 59 61 61 62 65
61 61 60 60 59 59 59 58 58 58 58 58 58 58 58 58 54 55 65 67 65 66 69 67 64 64 57 55 57 52 44 49 56 58 58 63 63 60 57 59 58 61 64 63 62
60 60 60 60 59 59 59 58 58 58 58 58 58 58 58 57 53 64 68 66 66 67 68 68 69 65 55 56 55 52 50 57 62 63 61 59 56 61 57 53 58 59 61 60 61
58 58 59 59 59 59 58 57 58 58 58 58 58 58 57 54 53 66 67 67 67 67 67 65 63 57 54 54 58 51 60 60 62 64 62 58 58 58 55 56 62 60 61 61 62
57 57 58 58 58 58 57 57 57 57 58 58 58 58 55 49 55 68 68 67 67 68 66 65 61 59 54 55 57 56 60 62 64 64 62 62 60 60 56 58 61 62 61 62 60
57 57 57 57 57 57 57 56 56 56 57 58 58 58 53 44 68 69 69 66 67 66 65 66 64 64 59 58 55 60 60 61 61 62 62 61 58 57 58 60 59 59 57 58 60
57 57 56 57 56 56 56 56 56 56 57 57 58 56 48 51 64 63 65 67 66 67 64 66 67 61 60 58 63 60 55 58 62 59 60 60 53 53 57 58 58 57 56 57 58
57 56 56 56 55 55 55 55 55 56 56 57 58 55 44 64 62 63 62 63 67 68 68 69 68 63 60 62 60 55 51 45 56 59 61 59 50 56 57 57 54 55 54 57 58
56 56 56 55 55 55 55 54 55 56 57 57 52 49 45 66 61 67 67 64 67 68 68 74 66 60 58 51 46 46 41 45 52 60 57 55 52 52 56 57 53 53 54 56 55
56 56 55 55 55 54 54 54 55 56 56 57 58 47 55 59 68 69 67 67 65 65 62 62 57 52 48 46 39 41 43 48 47 53 53 51 52 54 55 56 53 54 55 52 52
55 55 55 55 54 54 52 49 49 47 48 47 49 50 56 65 70 66 69 64 64 60 52 56 48 47 50 51 52 50 48 45 53 59 54 55 52 57 55 54 50 53 53 50 52
55 55 54 54 54 54 50 47 50 50 39 51 52 52 57 61 52 61 67 58 57 51 54 50 47 57 57 54 53 50 47 47 52 59 54 53 52 53 53 54 53 52 50 50 52
54 54 54 54 54 48 43 48 56 55 41 47 53 53 56 59 52 55 62 60 54 51 50 48 53 60 56 53 51 50 47 48 48 56 55 50 48 53 54 54 55 52 52 52 52
54 54 53 53 47 43 42 52 53 54 35 42 50 54 60 60 51 63 66 62 56 51 51 50 59 56 54 53 54 46 55 55 52 47 42 49 37 47 51 50 52 52 50 50 52
54 54 53 53 44 41 48 51 52 50 23 51 53 64 61 55 58 58 65 58 52 53 53 48 52 53 51 53 57 52 58 54 52 48 42 44 40 45 49 48 50 52 51 51 52
54 53 53 47 43 45 47 48 46 34 23 44 55 52 52 54 56 59 57 60 58 54 53 52 57 56 57 59 59 61 54 52 48 45 36 44 42 41 45 52 53 55 55 54 53
53 53 50 50 39 45 46 42 33 27 46 43 45 50 50 49 51 53 50 49 44 40 43 50 52 54 58 52 56 53 46 35 33 34 33 45 41 45 54 57 59 57 57 56 55
52 52 49 48 45 45 41 33 25 36 37 48 46 47 43 46 46 47 47 42 48 46 42 41 39 52 57 54 49 48 48 36 32 29 35 44 38 47 57 61 60 62 61 59 56
52 42 44 43 46 43 34 22 30 35 44 40 43 39 40 44 44 43 40 41 47 50 41 39 41 55 59 60 58 49 44 53 41 38 34 39 45 54 58 59 59 58 58 56 57
40 43 44 45 46 40 33 27 31 42 43 43 33 39 34 38 39 40 39 45 43 50 51 47 40 53 57 58 57 55 56 42 40 32 30 36 39 43 52 55 57 55 57 58 58
42 37 46 45 44 36 26 28 35 43 43 39 37 36 37 36 39 38 39 45 47 48 50 46 42 45 53 49 47 48 49 47 47 39 35 30 36 51 53 56 57 57 58 59 59
39 31 43 48 33 33 29 36 41 39 44 41 40 39 36 37 35 37 38 44 52 49 42 46 43 38 45 55 56 54 53 51 39 38 38 35 39 56 55 56 59 58 61 57 60
36 37 43 44 28 29 35 36 39 38 39 38 37 41 41 37 32 38 39 49 52 49 44 43 37 32 39 47 55 51 52 52 48 42 37 33 38 57 57 57 58 58 59 62 59
36 30 36 39 39 33 32 33 33 41 39 41 39 40 36 34 39 34 38 45 50 49 48 45 39 36 35 41 48 46 52 53 50 37 38 41 45 52 56 56 60 61 60 61 61
37 32 37 29 32 34 36 36 33 33 40 41 36 36 34 31 32 33 39 43 48 47 47 42 35 41 45 50 52 51 50 51 47 47 43 46 47 54 55 57 60 62 62 61 61
33 34 37 33 38 34 34 32 34 36 37 35 34 38 38 33 34 32 38 40 39 44 42 43 35 37 40 46 51 50 52 52 50 49 48 50 50 57 60 59 58 61 62 60 62
41 40 38 35 35 32 33 34 35 39 41 42 40 37 35 37 42 43 44 43 44 43 40 36 36 35 33 44 44 36 46 50 53 51 49 45 51 57 55 57 58 59 60 60 61

GFSSW_sfc_temp_090.txt.gz
Temp
61 61 60 60 59 59 59 59 58 58 58 59 59 58 59 58 57 56 54 65 62 65 68 64 64 62 59 56 56 52 45 40 44 46 53 59 58 58 59 57 57 59 59 61 62
59 59 60 59 59 59 59 58 58 58 58 58 58 58 58 57 52 51 63 66 65 66 66 65 61 62 56 54 54 51 42 47 54 55 56 61 59 59 57 57 57 59 62 61 61
58 58 59 58 58 58 58 57 57 58 58 58 58 58 58 56 53 62 66 66 66 66 65 66 66 63 53 52 53 50 48 53 59 59 58 56 56 59 55 52 57 57 60 58 59
57 57 58 58 58 58 57 57 57 57 58 58 58 58 57 54 52 61 67 67 66 65 65 62 60 56 52 52 55 48 56 57 60 60 58 55 54 56 54 58 60 60 59 59 59
57 57 57 57 57 57 57 56 56 57 57 57 58 58 52 50 54 66 68 67 63 66 64 62 58 57 53 54 54 52 56 58 62 60 58 59 58 57 54 57 59 59 60 59 59
57 57 57 57 57 57 56 56 56 56 56 57 57 58 48 45 66 66 65 64 63 61 62 63 61 62 56 55 54 57 57 58 58 59 59 58 55 54 57 58 58 58 57 61 58
57 56 56 56 56 56 56 56 55 56 56 56 57 55 46 52 62 61 62 62 63 64 61 63 63 58 57 55 59 57 52 54 56 55 56 57 51 52 57 57 56 56 55 59 59
56 56 55 55 55 55 55 55 55 56 56 56 57 53 42 61 59 60 59 60 63 64 65 65 64 59 57 60 57 51 49 43 52 55 58 58 48 55 54 55 53 54 57 57 57
56 55 55 54 54 54 54 54 55 57 57 56 51 46 45 64 58 64 64 61 64 63 64 72 63 57 55 49 45 44 39 41 49 55 53 52 50 54 52 54 52 52 55 57 55
55 55 55 54 54 53 53 55 55 55 55 56 56 44 54 57 64 67 63 65 62 60 59 58 55 49 46 45 38 40 40 44 44 50 53 47 50 58 55 52 52 51 54 55 54
55 55 54 54 54 53 51 48 47 44 48 44 46 47 52 61 66 63 64 62 60 57 50 54 45 43 50 48 49 47 45 43 47 54 50 50 49 55 54 50 50 50 53 52 50
54 54 54 54 53 53 46 45 47 47 37 50 50 49 55 59 50 59 65 57 55 49 53 48 44 53 54 52 50 48 45 44 49 55 52 50 50 55 52 52 52 51 49 49 50
54 54 54 53 53 46 41 46 52 52 38 45 52 50 52 55 50 53 59 58 53 49 49 47 50 57 54 49 48 47 46 44 46 51 51 46 45 51 52 52 53 51 51 51 50
53 53 53 53 45 42 41 49 49 48 35 40 46 51 57 56 48 60 64 58 54 49 50 47 56 54 51 50 51 44 52 51 49 43 37 46 34 45 50 51 51 51 49 50 50
53 53 53 53 41 39 44 48 49 48 23 47 49 61 57 53 54 54 62 55 48 50 52 45 50 50 49 50 53 49 54 50 49 43 39 42 37 43 47 50 52 51 51 50 51
53 53 53 46 43 43 45 45 44 33 23 41 51 49 49 52 53 57 55 57 55 50 50 48 54 54 53 57 55 57 51 49 45 42 32 42 40 39 44 50 53 53 52 53 50
52 52 50 48 37 43 43 39 30 25 43 39 41 46 46 44 48 48 49 47 42 37 38 48 50 53 56 50 53 50 45 33 31 31 32 43 39 44 52 55 56 58 54 53 53
52 51 48 46 44 44 39 31 22 34 35 44 43 43 40 43 44 45 44 42 48 46 40 39 36 50 55 53 49 48 46 33 30 29 34 42 36 45 55 58 58 59 57 54 52
51 40 44 43 45 42 32 20 29 33 40 38 40 36 37 41 42 42 40 40 43 44 38 37 38 53 57 58 57 47 41 50 38 36 32 37 42 52 55 58 57 57 54 52 53
40 39 43 44 44 39 32 26 30 38 39 39 31 36 30 35 36 37 38 44 43 47 47 42 35 49 54 55 56 52 53 41 37 30 29 34 36 41 50 54 56 56 53 53 53
39 36 44 44 42 35 25 25 32 41 41 36 34 33 34 33 35 35 37 43 46 46 48 42 39 40 49 46 45 45 46 44 45 38 32 30 35 48 53 56 55 57 56 54 54
39 31 42 46 32 33 28 32 39 37 41 39 38 36 34 35 32 33 35 40 48 49 41 41 37 32 41 52 53 49 47 49 39 35 34 34 40 52 54 54 56 57 59 56 56
35 35 43 41 27 28 34 34 37 36 36 36 35 39 37 33 29 34 36 44 46 45 41 44 35 30 35 43 48 44 48 50 46 42 40 33 37 54 53 55 57 56 58 57 56
34 28 34 38 37 32 30 30 30 39 37 38 37 38 34 32 36 32 34 41 44 44 47 45 37 34 30 34 41 39 46 50 48 35 39 41 42 49 54 55 58 58 58 58 58
35 31 35 27 30 31 33 33 30 30 38 39 34 34 33 30 31 31 36 38 42 46 44 42 31 37 38 40 39 38 44 49 46 45 40 42 45 51 54 55 59 60 58 59 61
32 32 35 33 34 33 32 30 30 34 36 34 32 37 36 30 32 30 35 35 35 41 43 40 30 37 32 40 41 38 46 48 47 46 44 45 44 54 58 54 56 59 60 60 59
40 41 37 35 32 31 31 32 34 37 39 41 38 35 33 35 41 42 42 41 40 37 36 36 34 34 30 38 35 33 42 48 48 48 48 41 48 52 54 54 56 59 58 59 60

GFSSW_sfc_temp_093.txt.gz
Temp
59 59 59 59 59 58 58 58 58 58 58 58 59 59 59 58 57 59 62 69 66 66 68 69 71 71 70 67 67 66 60 55 57 55 63 67 65 67 68 66 64 66 66 68 66
59 59 59 59 58 58 58 58 57 57 58 58 58 58 58 58 54 56 67 66 65 66 71 70 67 68 67 66 65 65 58 58 63 64 65 68 64 67 65 63 65 65 68 66 65
58 58 58 58 58 58 58 57 57 57 58 58 58 58 58 57 57 68 67 66 66 67 73 73 71 69 65 65 64 61 60 61 65 67 67 66 66 68 65 65 68 69 68 64 62
57 57 58 58 58 58 57 56 57 57 57 57 58 58 57 55 56 71 68 67 67 69 71 70 69 65 62 61 64 59 63 64 68 67 65 65 68 65 65 72 67 69 67 64 64
57 57 57 57 57 57 57 56 56 57 57 57 57 58 54 55 59 71 68 68 68 69 69 67 64 64 61 62 62 59 63 65 67 66 66 66 66 66 65 69 67 66 64 64 65
57 56 56 57 57 56 56 56 56 56 56 57 57 57 50 48 70 70 66 69 69 68 67 68 66 68 64 62 62 64 63 66 66 66 66 65 66 63 71 67 63 62 62 64 63
56 56 55 55 55 55 56 55 55 55 56 57 57 55 47 54 68 64 63 65 69 69 66 68 70 67 65 61 66 64 59 62 63 66 64 66 60 60 69 64 62 60 59 62 63
56 55 55 55 55 54 55 54 55 56 57 57 57 53 44 62 64 62 62 63 66 68 67 70 70 67 65 66 62 59 57 54 60 63 65 64 59 66 65 63 63 62 60 61 62
55 55 55 54 54 54 54 54 55 57 56 56 51 49 47 65 60 67 66 63 64 64 66 72 67 62 62 57 53 53 51 51 57 63 63 62 60 66 61 62 63 61 61 61 61
55 55 54 54 53 53 53 54 55 56 56 57 55 45 56 57 62 66 66 66 64 61 61 62 61 56 54 53 44 49 49 49 53 60 60 59 60 66 65 62 63 62 61 60 60
55 55 54 54 53 53 51 51 47 46 48 45 48 47 52 61 66 64 67 65 64 60 53 56 52 47 54 55 56 54 52 51 55 60 58 59 58 63 68 62 60 60 60 59 59
54 54 54 54 53 53 48 45 45 45 36 48 49 49 54 57 49 59 66 57 57 52 55 51 47 55 58 55 54 55 52 51 56 60 57 58 58 65 65 65 64 61 60 61 59
54 54 54 53 53 47 44 46 52 49 37 44 51 50 51 53 48 52 60 60 55 52 52 50 54 58 55 52 50 52 50 51 51 56 58 56 55 60 64 62 61 60 62 62 59
53 53 53 53 46 44 44 49 49 48 35 41 46 52 55 55 48 59 63 60 55 51 52 52 58 55 52 52 54 48 56 55 53 51 46 56 45 55 63 64 63 60 58 59 59
53 53 53 52 43 41 46 48 49 47 27 48 50 62 59 52 55 57 63 57 50 52 53 49 52 51 51 52 55 52 57 55 54 49 49 51 47 54 56 59 64 67 59 59 60
53 53 52 47 44 46 47 46 46 35 24 42 51 49 49 52 53 57 56 60 58 51 53 52 59 56 56 58 57 59 55 54 51 49 40 47 49 51 55 60 65 66 63 60 59
52 52 50 49 41 46 46 43 33 26 43 39 41 46 46 45 48 50 49 48 45 40 40 50 52 57 58 53 56 55 51 41 38 37 39 49 46 53 59 64 65 67 68 60 61
51 51 48 48 47 47 42 36 21 35 35 44 43 44 42 44 45 46 46 43 48 47 44 40 39 52 57 56 51 50 50 42 34 36 42 46 43 53 63 67 66 66 67 63 60
51 42 43 44 46 45 35 25 30 34 40 37 42 38 38 42 42 44 42 42 46 48 40 38 41 55 57 59 59 50 45 55 45 42 40 46 49 58 63 64 64 67 65 64 60
42 41 41 45 46 41 31 29 33 39 40 40 33 38 33 36 38 39 40 46 45 49 50 42 36 50 55 58 59 55 56 43 44 35 35 42 44 50 57 63 66 66 66 64 61
40 34 42 45 45 37 24 28 33 40 42 37 35 35 35 35 37 37 39 45 48 47 49 45 40 42 51 49 49 50 49 50 49 43 39 37 44 56 59 65 63 67 65 65 63
38 29 42 46 32 33 28 32 38 37 42 40 39 38 36 37 35 35 37 42 48 47 42 44 40 34 41 52 55 55 50 51 42 41 42 42 46 60 61 63 62 65 66 66 66
35 34 43 43 27 28 34 34 37 36 37 37 36 39 39 35 32 36 38 46 46 44 41 44 36 32 39 46 50 45 48 49 49 47 42 37 45 60 59 60 64 64 68 65 64
34 28 35 37 37 33 31 31 31 39 36 38 37 39 36 33 37 33 35 42 45 45 47 46 39 36 33 36 41 38 42 45 42 38 44 45 49 57 60 60 66 66 67 66 65
34 30 36 27 30 31 32 33 30 30 38 39 34 35 34 30 33 33 38 40 44 46 45 44 33 37 40 43 43 42 40 43 40 42 40 48 50 56 62 64 67 69 67 65 66
31 31 34 32 34 32 32 31 30 33 35 34 33 37 36 30 33 33 36 37 35 42 39 38 33 37 34 40 41 39 44 44 44 44 46 50 51 60 64 64 63 65 66 66 68
39 40 36 33 32 30 31 32 33 37 37 39 38 35 33 36 40 40 42 41 40 36 36 35 33 32 31 40 40 35 42 44 47 50 52 46 55 60 59 60 62 65 65 65 66

GFSSW_sfc_temp_096.txt.gz
Temp
59 59 59 59 59 58 58 58 58 58 58 59 59 59 59 58 59 76 74 76 75 67 67 80 80 82 82 80 81 81 70 68 70 69 72 79 73 80 81 78 78 80 80 81 78
59 59 59 59 58 58 58 58 57 58 58 58 58 58 58 58 65 73 75 67 66 66 80 78 77 79 77 77 78 74 70 72 77 77 74 77 75 77 76 78 77 79 83 79 77
58 58 59 59 58 58 58 57 57 58 58 58 58 58 57 60 68 78 68 67 67 69 83 84 82 79 74 77 76 74 69 77 76 78 78 77 77 81 77 75 80 80 83 81 76
58 58 58 58 58 58 57 57 57 58 58 58 58 58 57 66 62 81 69 68 67 80 80 79 77 73 71 70 77 68 74 77 78 80 76 75 80 77 79 79 86 83 83 78 76
57 57 57 57 57 57 56 56 56 57 57 57 58 58 62 65 70 84 69 70 80 79 78 76 74 74 69 73 75 68 74 77 79 77 77 77 75 76 78 84 86 82 75 76 75
56 56 56 56 56 56 56 56 56 56 56 57 58 57 60 57 82 80 76 77 79 79 78 78 75 78 73 72 70 75 74 75 77 77 77 73 75 78 79 85 78 75 75 75 74
56 56 56 56 55 55 55 55 55 55 56 58 58 60 56 63 78 78 74 76 79 78 74 79 79 74 74 69 75 73 67 72 74 76 74 78 70 73 81 80 77 75 75 75 74
56 56 55 55 54 54 54 54 54 55 57 57 58 60 57 73 77 74 78 75 78 77 74 78 79 74 73 75 69 66 68 62 72 74 75 73 66 76 79 77 78 78 76 73 72
56 55 55 54 54 54 54 54 54 57 57 57 59 57 58 71 69 75 76 70 72 71 73 76 74 70 70 63 62 65 58 63 66 74 74 70 69 77 78 76 76 78 78 76 74
56 55 55 54 54 53 53 54 57 57 61 63 63 52 65 65 70 72 77 71 70 67 65 65 66 63 64 62 52 58 59 62 61 71 69 70 69 77 80 77 77 79 79 77 75
55 55 54 54 54 53 56 65 61 59 59 55 61 59 62 70 71 71 73 69 69 64 58 63 58 55 62 64 65 65 61 61 67 70 65 67 69 74 79 80 78 78 78 77 75
54 54 54 54 53 53 60 55 50 51 44 56 57 57 61 63 53 64 72 63 61 59 60 58 54 65 67 65 63 62 58 59 66 70 66 66 67 73 77 78 79 79 78 77 76
54 54 54 53 53 56 55 53 59 57 44 53 58 57 59 59 54 59 65 66 59 58 57 52 61 66 63 60 57 59 57 58 59 67 68 65 63 68 76 77 77 77 79 79 77
54 54 53 52 51 55 56 59 60 55 44 52 55 60 61 60 54 67 67 65 61 56 57 56 64 62 59 57 60 52 63 61 60 59 54 64 52 64 72 73 77 79 77 77 77
54 53 53 52 53 54 55 59 59 50 34 54 56 69 66 58 61 62 68 62 55 55 55 54 56 57 56 58 62 56 63 62 60 58 58 59 55 60 70 67 73 78 80 77 76
53 53 53 54 55 56 58 58 54 41 33 48 56 54 56 58 59 63 61 64 63 56 57 54 64 59 60 63 63 64 59 60 60 58 47 55 56 59 66 69 72 76 77 77 76
53 52 53 58 52 58 58 54 40 35 50 45 47 52 53 52 54 57 54 53 50 45 46 51 52 61 62 55 60 58 54 45 44 44 44 59 54 59 69 73 75 76 79 77 76
52 52 53 57 60 57 54 45 29 41 43 49 48 51 47 51 52 53 52 50 54 52 50 47 42 55 63 59 56 53 54 45 38 43 49 57 50 61 72 77 79 77 78 78 75
51 53 52 56 57 55 47 34 39 42 45 43 48 45 47 48 49 50 49 48 50 53 45 44 46 58 61 63 62 56 49 59 50 53 46 55 59 66 71 72 75 77 77 77 76
49 48 50 57 56 50 41 35 42 45 45 45 39 44 41 43 45 46 47 51 49 53 56 48 41 55 58 62 63 60 64 48 51 39 39 51 54 57 64 67 74 75 77 78 78
47 42 53 56 52 41 32 38 42 47 45 42 41 41 43 41 43 42 44 51 52 51 54 51 46 49 55 54 54 55 53 54 56 53 43 43 53 67 67 69 72 76 77 77 77
44 33 47 53 36 38 36 39 42 43 47 44 45 43 41 43 41 42 42 48 56 53 47 50 46 40 46 58 59 57 56 56 47 46 51 50 52 71 71 72 74 75 76 77 77
36 41 45 47 31 34 39 39 42 40 42 42 41 45 46 41 37 43 44 51 52 49 46 48 43 38 43 51 54 50 53 53 52 52 47 43 52 69 72 69 71 74 78 77 75
37 31 37 38 40 40 38 37 36 43 41 44 42 44 42 40 44 40 41 47 50 49 48 48 44 41 39 43 49 45 48 52 49 42 47 50 54 62 67 69 71 75 78 80 77
36 35 42 30 33 34 39 38 36 34 42 44 40 40 39 36 39 39 43 45 49 50 51 49 39 44 45 47 48 47 48 50 48 50 44 49 53 60 65 67 70 75 77 77 78
34 35 42 41 42 38 35 35 35 37 39 38 37 42 41 36 40 38 40 42 41 46 45 43 39 41 40 47 47 44 49 51 51 52 53 54 52 64 68 72 71 73 75 76 77
41 47 42 40 39 36 36 36 38 41 42 44 43 40 38 41 41 40 43 44 44 42 40 40 40 37 35 45 44 37 45 50 53 57 54 49 58 66 66 68 71 73 74 76 77

GFSSW_sfc_temp_099.txt.gz
Temp
59 59 60 59 59 59 59 58 58 58 58 59 59 59 59 58 58 79 79 81 80 68 67 87 86 87 88 85 88 87 72 70 74 76 78 85 78 86 88 83 86 88 85 88 88
59 59 60 59 59 58 58 58 57 58 58 58 58 58 58 58 66 77 73 69 69 68 80 83 80 84 81 82 84 78 72 73 84 83 80 82 81 82 82 81 82 85 90 91 86
58 58 58 58 58 58 58 57 57 58 58 58 58 58 58 60 70 82 68 68 67 70 84 88 87 83 77 83 81 79 71 80 83 84 84 82 82 86 81 78 83 83 86 88 86
58 57 57 58 58 57 57 56 57 57 57 57 58 58 58 67 65 86 70 69 68 82 85 84 82 77 74 75 82 73 79 81 82 85 82 80 84 81 83 83 89 89 90 86 84
57 57 57 57 57 57 56 56 56 56 57 57 58 58 64 69 74 82 70 72 83 82 81 80 77 77 72 77 80 76 78 80 83 83 82 83 79 79 81 87 90 90 88 84 83
57 57 56 56 56 56 56 56 55 56 56 57 58 58 63 60 87 88 84 84 84 84 82 83 79 82 77 76 76 80 80 79 80 81 82 78 78 81 82 88 86 86 84 84 82
57 56 56 56 55 55 55 55 55 55 56 57 58 63 64 67 87 87 84 82 87 85 80 85 84 78 78 72 80 78 71 76 77 79 78 82 74 76 86 88 85 83 84 83 83
57 57 55 55 55 55 55 54 55 55 57 58 58 67 61 82 84 80 84 81 84 84 81 84 81 76 74 78 74 69 71 63 75 79 81 79 67 80 86 84 82 84 85 83 82
57 56 55 54 54 54 54 54 54 57 58 58 63 64 62 72 75 81 82 76 80 82 81 82 78 72 73 66 61 66 60 65 70 80 78 75 69 82 86 83 81 84 85 85 83
56 56 55 54 54 53 53 53 60 57 60 69 69 58 68 69 76 77 83 78 73 73 70 70 70 66 67 63 49 57 62 66 66 76 77 72 72 79 84 84 82 84 85 86 85
56 55 55 54 54 53 57 70 67 62 65 60 65 65 68 76 78 75 81 75 74 69 62 66 62 58 62 65 64 64 65 67 71 78 73 71 72 76 82 83 82 84 85 85 84
56 55 55 54 54 54 60 61 57 57 49 63 65 65 69 70 60 69 78 66 67 61 67 63 57 66 69 67 64 61 61 62 69 74 72 70 70 75 79 81 83 83 84 85 86
55 55 54 53 53 57 62 58 66 63 51 61 66 64 66 67 62 66 72 69 65 62 63 59 65 68 62 61 61 62 59 61 62 69 73 69 65 69 77 81 82 84 85 86 85
55 54 53 53 53 62 61 65 66 62 47 57 59 65 66 66 59 74 73 67 65 60 64 63 68 64 62 59 63 56 65 63 62 61 56 70 54 68 75 77 80 82 83 84 85
54 54 53 52 56 58 61 65 65 55 37 59 61 74 71 62 65 67 75 67 59 62 62 59 60 59 59 59 61 59 66 62 62 60 60 61 57 64 73 71 76 81 83 85 85
54 54 53 57 58 62 65 63 58 43 36 54 62 59 61 64 64 67 67 69 68 61 63 62 70 64 61 65 65 65 62 61 61 59 49 58 58 61 67 72 76 81 83 84 85
54 53 54 62 56 63 62 57 42 37 56 52 53 57 57 57 60 61 60 58 56 50 52 58 59 65 63 57 63 60 55 44 44 46 45 61 58 62 71 77 78 79 81 82 83
53 52 55 61 65 62 58 48 32 48 51 55 53 55 53 56 58 57 58 56 60 57 54 51 49 60 63 57 56 57 53 44 37 42 47 62 54 63 75 79 82 83 82 84 83
52 56 53 57 62 60 50 37 41 48 54 51 51 48 51 55 53 54 55 56 58 57 50 49 51 63 63 62 61 57 51 61 49 52 45 51 61 70 73 73 78 80 81 82 82
51 47 51 60 60 54 43 37 48 54 50 49 42 49 45 51 50 52 53 57 53 57 60 53 44 59 61 64 62 58 64 50 53 38 38 51 55 57 66 67 75 78 79 82 84
44 39 56 62 58 48 35 42 48 54 51 46 45 45 47 46 48 48 48 55 57 56 58 56 51 53 58 55 55 53 51 55 57 54 43 41 50 68 71 70 72 78 80 82 83
42 34 55 59 38 40 39 46 45 48 52 48 49 47 46 47 46 46 46 52 59 58 49 56 48 44 50 62 63 60 58 57 46 45 51 50 52 72 73 73 72 76 80 82 83
35 42 54 51 32 36 44 46 48 45 47 47 45 49 50 45 40 45 47 55 58 53 51 50 47 40 45 55 60 53 58 60 59 57 49 44 50 74 74 74 74 72 79 81 81
37 32 38 41 44 40 39 41 41 48 46 48 47 49 46 43 48 43 46 52 54 54 48 49 46 44 41 45 46 48 52 55 54 46 49 52 57 66 69 71 72 73 77 80 81
37 38 43 32 36 38 42 42 41 41 47 48 44 44 43 39 42 42 48 50 53 52 52 49 40 47 49 51 52 49 50 52 51 53 47 53 55 63 68 70 72 75 76 77 80
34 39 46 43 44 41 39 38 37 43 44 42 42 46 46 40 43 41 46 46 45 52 50 52 40 46 44 50 51 48 52 53 54 55 56 57 56 68 71 72 70 72 75 75 79
42 51 44 39 41 39 39 41 42 45 46 48 46 42 41 44 47 47 46 47 44 40 43 39 41 40 35 48 48 41 49 53 55 58 58 51 60 68 67 69 69 71 73 75 78

GFSSW_sfc_temp_102.txt.gz
Temp
60 60 60 60 59 58 58 58 58 58 58 59 59 59 59 58 57 71 72 79 78 69 68 84 82 83 85 81 85 85 69 65 69 72 77 86 81 86 88 83 84 86 85 88 88
59 59 59 59 58 58 58 58 57 57 58 58 58 58 58 58 61 69 78 71 70 69 80 79 78 81 77 78 80 76 68 68 78 81 79 82 81 83 82 80 81 83 89 90 86
58 58 58 58 58 58 57 57 57 57 57 58 58 58 58 59 65 78 69 69 69 70 82 84 84 81 75 78 78 76 69 75 79 82 83 81 80 84 81 76 82 81 85 88 84
58 57 57 57 57 57 57 56 56 57 57 57 58 58 58 62 62 79 69 69 69 80 81 80 80 74 72 71 78 71 77 78 80 82 81 78 82 79 81 81 87 88 88 88 85
57 57 57 57 57 57 56 56 56 56 57 57 58 58 62 65 69 84 70 72 82 81 80 78 76 75 69 74 76 73 76 80 81 82 81 82 78 78 79 85 88 89 87 84 83
57 57 57 57 57 56 56 56 55 56 56 57 57 58 60 57 86 89 85 84 84 82 80 81 78 80 74 73 72 76 77 78 80 80 80 76 77 79 80 86 85 85 84 84 83
57 57 57 56 56 56 56 55 55 55 56 57 58 62 60 63 85 85 85 82 84 84 79 83 83 77 76 71 77 75 68 73 75 77 76 79 71 73 82 85 84 84 85 84 84
57 57 56 55 55 55 55 55 55 55 56 58 59 63 57 82 85 81 83 81 84 83 81 82 81 75 71 74 71 67 67 60 71 75 77 76 64 76 84 84 82 83 83 84 83
57 56 56 55 54 54 54 54 55 56 58 59 59 61 60 75 75 82 83 76 80 81 80 82 77 69 70 62 59 62 55 58 64 75 76 75 68 78 84 83 80 81 83 84 82
56 56 55 55 54 54 54 54 58 59 62 67 68 59 67 69 78 80 82 79 74 75 71 70 68 62 63 59 49 54 56 60 59 68 72 72 71 76 80 81 80 80 82 83 84
56 56 55 54 54 54 55 59 65 58 64 61 63 64 69 77 80 75 79 77 74 70 61 67 59 55 60 63 64 62 59 57 60 66 65 69 71 74 79 80 78 80 82 82 83
56 56 55 54 54 54 57 59 58 58 47 61 64 66 71 73 62 70 78 68 66 58 65 61 54 64 68 67 64 62 57 55 61 65 64 66 67 74 76 78 78 79 81 82 84
55 55 54 54 53 55 60 60 68 64 48 58 67 67 68 71 63 67 74 69 64 61 61 57 63 70 65 63 60 60 57 55 53 60 64 63 62 68 75 77 80 81 83 84 83
55 55 54 53 52 58 58 66 67 64 43 57 61 66 69 68 61 74 75 69 64 57 61 61 68 65 62 60 61 52 62 61 59 55 47 62 49 63 70 73 77 79 80 81 82
54 55 54 54 53 52 62 65 65 58 32 61 62 76 72 63 67 68 77 69 58 61 62 57 61 60 58 60 64 58 64 60 58 55 54 56 52 59 69 67 73 77 80 80 82
54 54 54 55 57 59 65 62 58 39 31 55 64 60 60 63 64 70 67 71 69 62 62 60 69 66 64 66 65 67 60 58 58 54 43 52 53 55 62 67 72 79 81 82 82
53 53 53 58 50 60 62 54 38 33 58 54 56 60 59 59 61 63 60 59 54 49 50 58 60 65 67 59 62 60 53 41 38 39 39 56 53 57 67 72 74 77 80 80 81
52 52 54 58 60 59 56 43 29 46 50 60 56 57 52 58 59 59 57 54 62 59 53 48 46 61 66 60 55 55 53 40 30 34 40 48 42 58 73 76 77 81 82 81 79
52 53 53 57 57 53 45 32 37 46 54 53 55 48 49 56 56 56 55 54 59 55 46 47 49 64 64 65 62 53 48 58 45 47 40 44 55 67 73 71 75 77 80 78 79
46 46 49 59 56 47 35 33 43 53 55 52 43 49 44 50 51 51 51 59 57 58 59 52 42 57 62 65 63 57 61 46 48 32 31 43 48 49 58 64 71 73 76 77 79
43 37 53 60 54 39 30 37 45 53 54 47 45 45 47 47 50 49 50 57 59 57 57 54 48 48 57 55 53 53 50 51 51 46 36 35 44 61 63 67 69 70 76 77 78
39 32 55 52 36 39 35 43 47 51 55 50 49 47 45 47 46 47 47 53 60 58 49 53 46 41 48 57 61 56 54 52 42 41 47 45 46 68 65 66 69 70 74 78 79
35 39 53 48 30 33 42 43 48 48 48 47 45 49 49 45 40 46 48 56 57 54 49 51 44 36 41 51 58 53 56 57 55 52 45 38 44 66 67 65 70 71 72 75 79
35 31 41 39 42 38 34 39 42 51 49 50 48 50 46 43 47 43 45 52 55 55 49 49 44 39 35 43 47 42 48 51 53 36 43 48 52 60 62 63 68 71 71 74 76
33 34 43 33 36 39 41 37 35 39 48 49 45 45 43 39 41 41 46 49 53 52 51 49 37 42 45 48 49 48 47 47 46 50 41 48 51 58 62 61 67 71 72 74 75
33 34 44 40 38 37 39 38 38 42 45 40 42 45 46 40 43 40 45 46 45 51 49 50 38 42 39 47 48 45 49 49 49 51 52 53 53 64 67 69 68 70 72 71 73
39 42 36 39 40 38 38 37 41 45 45 48 45 39 40 44 46 47 47 47 46 42 40 40 40 38 33 44 45 38 46 49 51 55 54 48 56 63 63 66 67 68 70 71 73

GFSSW_sfc_temp_105.txt.gz
Temp
59 59 59 59 58 58 58 58 57 57 58 58 59 58 59 58 57 61 60 68 65 68 66 74 72 71 70 65 68 64 54 52 56 59 65 74 72 75 77 74 76 78 77 79 77
59 59 59 58 58 58 58 57 57 57 58 58 58 58 58 58 54 58 66 68 67 67 72 71 69 70 61 62 63 59 53 55 65 69 68 73 72 73 70 72 73 74 78 76 75
58 58 58 58 58 58 57 57 56 57 58 58 58 58 58 57 54 68 67 68 68 68 72 73 74 71 62 64 63 61 57 65 69 72 73 71 69 72 70 65 72 71 74 73 73
58 58 58 58 58 57 57 56 56 57 57 57 58 58 58 54 53 65 69 68 68 69 73 71 69 63 60 58 65 60 67 69 70 74 73 70 69 69 64 69 76 76 75 76 73
57 57 58 58 57 57 56 56 56 56 57 57 58 58 54 53 58 74 68 69 70 73 70 70 67 65 60 63 64 63 67 70 73 73 71 74 70 69 67 74 78 79 79 75 73
57 57 57 57 57 57 56 56 56 56 56 57 58 58 49 46 74 74 73 74 74 72 70 70 68 70 65 64 61 68 68 68 69 69 69 69 68 65 71 76 76 78 74 74 73
57 57 56 57 56 56 56 56 56 56 56 57 58 57 51 51 71 71 74 73 73 73 69 72 71 64 65 61 68 66 60 63 66 67 67 69 64 64 72 74 74 78 79 75 74
57 57 56 56 55 55 55 55 55 56 56 57 58 55 47 71 69 72 73 71 74 74 72 73 72 65 60 65 63 58 56 49 62 65 68 67 56 69 74 73 73 75 78 74 73
56 56 56 55 54 54 54 55 55 56 57 58 53 51 50 73 68 74 73 72 73 72 71 78 67 59 60 51 46 50 45 48 55 65 66 66 58 67 70 75 73 71 72 73 72
56 56 56 55 54 54 54 54 56 56 58 62 61 49 58 63 71 74 72 74 68 68 66 62 56 50 48 45 39 43 45 52 51 59 60 58 58 64 68 71 67 69 70 71 70
55 56 55 54 54 54 52 49 50 49 53 53 55 55 60 70 73 69 72 69 67 62 51 57 46 41 48 51 54 52 51 49 55 61 57 57 56 62 67 69 67 66 67 69 71
55 55 55 54 54 54 50 48 54 52 41 54 56 56 62 65 57 64 70 60 58 51 55 51 46 54 58 57 54 53 50 50 56 59 59 55 53 58 62 66 69 66 67 68 66
54 54 54 53 54 51 49 52 60 56 39 49 58 58 60 63 57 59 66 61 56 53 53 48 53 61 59 56 54 54 50 49 50 56 58 53 49 54 62 68 73 71 71 72 68
54 54 54 53 49 49 47 58 58 54 32 44 56 63 66 66 56 68 69 63 56 51 52 51 60 58 56 54 56 48 56 56 54 48 40 53 39 48 56 61 68 72 72 72 69
53 53 54 53 45 44 52 57 56 49 21 56 59 71 67 58 62 63 70 63 53 53 52 48 52 52 52 54 57 52 57 55 52 46 43 48 45 47 58 59 65 69 69 74 72
53 53 53 50 46 50 56 55 48 32 22 49 60 56 56 58 59 63 62 65 63 55 54 52 59 55 54 59 60 59 52 53 50 44 36 46 45 44 52 58 65 71 72 70 73
52 52 51 53 41 54 55 44 28 23 51 49 53 57 54 53 55 57 55 51 45 40 41 50 52 58 60 52 55 52 44 33 31 31 33 49 46 47 57 65 68 69 72 70 69
52 51 49 51 51 49 47 33 22 38 42 54 54 54 50 54 53 55 53 47 53 50 45 41 38 51 58 54 49 46 44 32 26 27 34 48 38 45 63 67 71 74 74 71 68
51 43 43 47 49 46 38 23 27 38 46 45 47 44 46 51 50 49 48 47 51 49 41 39 43 55 58 58 56 48 42 50 40 41 34 40 47 56 60 60 65 71 72 68 69
40 38 40 49 48 43 32 29 34 45 47 45 35 44 39 44 43 44 45 52 51 53 52 46 36 52 57 59 56 50 53 38 41 29 26 37 41 43 52 52 59 65 68 69 69
38 33 43 48 45 36 27 28 38 45 46 40 39 39 40 39 42 40 43 51 54 51 52 46 43 40 51 48 43 42 42 44 44 41 29 27 36 55 50 52 54 61 68 69 68
39 28 44 46 33 34 29 37 43 42 46 43 46 42 39 40 38 39 40 46 54 52 44 45 40 32 39 50 50 46 41 43 35 35 38 37 38 61 58 59 57 60 66 67 69
33 34 42 43 26 29 36 38 41 40 41 43 43 45 44 39 33 40 42 50 52 48 43 45 36 28 34 42 48 44 45 45 40 44 38 31 38 61 61 55 57 59 63 67 72
34 25 32 34 35 31 30 32 33 43 43 46 44 45 41 37 41 36 40 47 49 49 49 47 39 34 27 33 41 37 44 47 36 32 34 37 42 52 56 54 54 58 61 66 70
33 29 35 20 30 32 34 35 33 31 41 45 41 41 38 34 36 35 41 43 47 49 46 42 31 37 39 41 42 41 42 45 42 44 34 40 38 48 56 56 58 59 65 67 69
30 30 33 31 36 34 33 33 34 38 33 34 33 39 40 36 37 33 37 37 37 42 41 44 32 36 33 40 41 38 42 44 45 47 46 47 46 57 61 63 63 63 66 65 68
37 38 34 33 31 32 31 35 36 36 40 45 40 37 36 39 41 42 41 41 40 37 35 35 34 31 27 37 37 30 39 43 45 49 48 41 49 57 58 61 56 56 58 59 60

GFSSW_sfc_temp_111.txt.gz
Temp
59 59 59 59 58 58 58 58 57 57 58 58 58 58 59 58 57 55 52 63 59 65 68 65 64 62 61 56 58 55 44 39 46 48 53 63 63 65 69 66 68 70 66 71 68
59 59 59 58 58 58 58 57 57 57 57 58 58 58 58 57 52 52 62 66 64 66 64 64 61 62 54 54 56 52 42 45 54 56 58 62 62 65 63 65 67 68 70 68 67
58 58 58 58 58 58 57 57 56 57 57 57 57 58 57 56 51 61 68 65 66 65 65 66 67 63 54 54 54 51 49 53 58 60 61 61 57 62 60 58 64 66 69 66 65
58 58 58 58 58 57 57 56 56 57 57 57 57 57 57 52 50 64 68 67 67 65 65 63 61 56 53 52 55 50 56 58 57 62 60 57 62 59 60 64 70 69 67 64 64
57 57 57 57 57 57 56 56 56 56 57 57 57 57 51 47 52 66 68 67 66 66 64 63 59 57 53 54 55 53 57 61 62 62 61 62 59 61 61 66 69 68 68 65 64
56 56 56 56 57 57 56 56 55 56 56 56 57 57 47 41 66 68 66 67 67 64 63 63 62 62 58 57 55 59 58 59 59 60 60 60 61 57 62 68 67 68 66 65 64
56 56 56 56 56 56 56 55 55 55 55 56 57 54 47 47 61 61 64 64 66 66 63 65 65 60 58 55 60 58 52 55 57 59 57 57 57 55 63 64 64 65 66 66 66
56 55 55 55 55 55 55 55 54 55 56 56 57 53 43 62 58 60 61 63 67 68 67 68 67 61 57 60 57 51 49 44 56 58 60 58 52 58 66 61 60 63 64 65 66
55 55 55 54 54 54 54 54 54 56 57 57 50 46 42 64 59 66 64 64 69 68 66 72 63 57 54 48 44 44 43 43 48 59 57 54 51 53 60 61 59 60 59 62 65
55 55 54 54 54 53 53 54 55 55 57 57 56 43 52 56 64 68 65 68 65 63 63 60 54 47 44 44 38 40 39 43 43 51 51 47 49 55 57 58 56 57 58 59 61
54 54 54 53 54 53 51 48 45 44 47 45 48 48 53 62 67 64 68 65 62 57 50 54 45 39 46 52 52 45 43 41 43 51 47 49 49 53 57 54 54 56 61 62 63
54 54 53 53 53 53 46 44 46 46 35 48 50 50 55 60 50 58 66 57 55 47 52 48 41 49 53 50 46 44 42 42 46 51 48 46 48 55 53 55 56 57 60 62 65
53 53 53 52 53 47 42 46 53 51 35 44 52 51 53 55 48 52 60 57 52 48 48 44 47 55 52 48 45 44 42 41 43 47 48 45 45 50 54 55 58 59 61 63 64
53 53 52 52 46 42 43 51 52 50 31 40 48 52 58 57 49 61 64 59 52 48 49 47 53 51 48 47 48 41 48 48 46 40 37 47 36 49 50 52 55 58 61 61 61
53 52 52 52 41 39 46 49 51 45 22 49 52 62 60 54 57 56 63 57 48 48 50 43 46 46 46 48 51 46 52 48 47 42 36 40 33 45 49 51 54 57 60 60 63
52 52 52 46 41 43 46 46 43 29 22 42 52 49 49 54 56 59 57 60 59 51 48 47 52 52 50 53 52 52 47 45 43 39 30 40 37 42 42 49 53 59 62 61 62
51 51 49 48 37 44 44 40 26 22 42 40 40 45 46 46 48 52 51 47 44 39 38 46 47 49 53 46 50 46 40 29 28 27 30 42 37 43 48 54 55 55 57 60 62
51 50 46 46 42 42 39 31 20 34 35 44 40 43 40 42 43 44 46 42 48 47 41 37 34 46 51 47 44 42 40 30 25 25 31 41 32 40 52 53 54 57 57 59 60
48 38 36 39 41 40 32 21 26 31 39 36 38 34 36 40 39 41 39 39 43 46 39 36 38 50 51 50 48 42 36 44 34 34 30 34 39 48 51 50 53 53 54 55 57
36 34 34 41 42 37 30 26 29 38 38 37 28 35 27 32 34 37 38 44 42 47 47 42 33 44 48 50 48 43 46 34 33 26 26 30 31 35 44 45 50 49 50 52 55
34 28 39 41 41 34 20 25 32 40 41 35 31 30 31 30 34 34 38 44 46 45 45 42 37 36 44 40 38 39 35 35 36 32 27 26 30 43 44 46 46 47 50 51 52
34 17 42 46 27 32 23 32 40 37 41 37 37 34 31 32 31 33 36 39 47 46 40 44 36 29 34 43 44 42 37 36 30 28 30 28 29 47 48 47 48 49 53 52 53
24 29 38 36 13 15 30 32 35 34 36 36 34 37 37 32 26 34 38 45 46 44 41 42 34 27 30 35 41 37 40 41 37 35 30 27 29 50 51 51 50 49 52 52 52
28 16 26 33 32 27 23 26 30 39 36 38 36 38 34 32 34 30 34 43 44 44 47 44 35 31 25 29 34 31 35 39 36 25 30 30 33 42 47 48 50 51 52 51 52
30 22 29 17 24 29 29 30 26 27 37 39 34 34 31 28 30 32 34 36 42 43 42 38 30 32 33 35 35 34 33 34 33 34 27 33 35 41 47 48 52 54 54 52 52
27 26 30 28 30 27 28 27 29 33 32 31 31 34 33 29 32 30 33 33 33 38 38 38 30 31 30 34 35 31 34 35 35 36 36 37 36 48 52 53 54 54 54 52 51
37 38 30 27 25 24 25 28 31 33 36 37 34 31 31 34 38 38 38 37 37 34 32 32 30 28 25 32 31 27 33 34 36 39 37 32 41 46 46 49 52 51 52 51 51